This is the latest recevied weather packets stored in our database for station/object I1SXT-13. If no packets are shown the sender has not sent any weather packets the latest 10 day(s).
| Time | Temp. | Humidity | Pressure | Rain* | Wind** | Luminosity | Snow |
|---|---|---|---|---|---|---|---|
| 1778050767 | 16.67° C | 94% | 1008.2 hPa | 1.02 mm | - | - | - |
| 1778050470 | 16.67° C | 95% | 1007.5 hPa | 1.02 mm | - | - | - |
| 1778050165 | 16.11° C | 94% | 1008.2 hPa | 1.02 mm | - | - | - |
| 1778049868 | 16.11° C | 94% | 1007.6 hPa | 1.02 mm | - | - | - |
| 1778049564 | 16.11° C | 94% | 1008.1 hPa | 1.02 mm | - | - | - |
| 1778049267 | 16.67° C | 95% | 1007.6 hPa | 1.02 mm | - | - | - |
| 1778048970 | 16.11° C | 95% | 1008.3 hPa | 1.02 mm | - | - | - |
| 1778048666 | 16.11° C | 95% | 1007.9 hPa | 1.02 mm | - | - | - |
| 1778048368 | 15.56° C | 96% | 1008.3 hPa | 1.02 mm | - | - | - |
| 1778048065 | 15° C | 96% | 1007.6 hPa | 1.02 mm | - | - | - |
| 1778047767 | 15° C | 96% | 1008 hPa | 1.02 mm | - | - | - |
| 1778047166 | 15° C | 96% | 1007.9 hPa | 1.02 mm | - | - | - |
| 1778046869 | 15° C | 95% | 1008.2 hPa | 1.02 mm | - | - | - |
| 1778045666 | 15° C | 96% | 1008.9 hPa | 1.02 mm | - | - | - |
| 1778045369 | 14.44° C | 97% | 1008.5 hPa | 1.02 mm | - | - | - |
| 1778045065 | 14.44° C | 96% | 1008.1 hPa | 1.02 mm | - | - | - |
| 1778044768 | 13.89° C | 96% | 1008.2 hPa | 1.02 mm | - | - | - |
| 1778044167 | 13.89° C | 96% | 1008.1 hPa | 1.02 mm | - | - | - |
| 1778043870 | 14.44° C | 97% | 1007.6 hPa | 1.02 mm | - | - | - |
| 1778043566 | 13.89° C | 97% | 1008.2 hPa | 0.76 mm | - | - | - |
| 1778043269 | 13.89° C | 96% | 1008.7 hPa | 0.76 mm | - | - | - |
| 1778042965 | 13.89° C | 96% | 1008.5 hPa | 0.76 mm | - | - | - |
| 1778042667 | 13.89° C | 96% | 1008.5 hPa | 0.76 mm | - | - | - |
| 1778042363 | 13.89° C | 96% | 1007.9 hPa | 0.76 mm | - | - | - |
| 1778042066 | 13.89° C | 95% | 1008.3 hPa | 0.76 mm | - | - | - |
* Rain since midnight (hover to see other rain measurements)
** Current wind speed in m/s (hover to see current wind gust speed)